Погода в Тюшево

Россия / Рязанская область     54°40′13″N   39°31′34″E
темп.,
°C
ветер,
м/с
пор.,
м/с
влажн.,
%
обл.,
%
осадки,
мм/ч
давл.,
гПа
погр.,
м
1 марта, пн
пн100:00−7св239698 0.0 102155
03:00−11с229465 0.0 102321
06:00−10сз129892 0.1 102421
09:00−8зюз129789 0.1 102536
12:00−3зюз469482 0.1 1025408
15:00−1з579189 0.1 1023663
18:00−1зюз51090100 0.0 1021492
21:000зюз61391100 0.1 1019596
2 марта, вт
вт200:00+1з61293100 0.0 1015533
03:00+1з61295100 0.0 1014490
06:00+1з61395100 0.0 1010594
09:00+1зсз61399100 0.1 1010515
12:00+1зсз511100100 0.2 1008579
15:00+1сз6119379 0.3 1008674
18:000сз5118785 0.1 1008564
21:00−1сз5119092 0.1 1010567
3 марта, ср
ср300:00−2сз51193100 0.1 1010687
03:00−3сз61390100 0.2 1011713
06:00−6сз6148975 0.0 1012613
09:00−6сз7138787 0.1 1014783
12:00−3сз7127931 0.0 10151107
15:00−1сз7108761 0.1 10151040
18:00−2зсз61191100 0.1 1014636
21:00−2зсз51192100 0.3 1015654
4 марта, чт
чт400:00−2з5119399 0.1 1013516
03:00−2зюз6129096 0.1 1011536
06:00−3зюз71588100 0.0 1008513
09:00−1зюз91887100 0.0 1005594
12:00+1зюз81588100 0.0 10011060
15:00+1зюз81488100 0.1 10001068
18:000з81591100 0.0 998854
21:00−1ссз81391100 0.7 1000676
5 марта, пт
пт500:00−5зсз498792 0.0 1003193
03:00−8зсз469147 0.0 1006116
06:00−9зсз349339 0.0 100864
09:00−8сз249442 0.0 1009180
12:00−5зсз238457 0.0 1010493
15:00−4зсз228178 0.0 1011620
18:00−7юз0187100 0.0 101121
21:00−7ююв1288100 0.0 101221